Hourly Weather Dziadyk

Today, 18 May, Tuesday

Time Temperature Precipitation Wind Pressure Humidity
00:00 +12°C° 0 mm 2 mps 737 mmHg 91%
01:00 +10°C° 0 mm 2 mps 737 mmHg 92%
02:00 +10°C° 0.1 mm 2 mps 737 mmHg 93%
03:00 +10°C° 0.1 mm 2 mps 737 mmHg 95%
04:00 +10°C° 0.1 mm 2 mps 738 mmHg 96%
05:00 +10°C° 0 mm 3 mps 738 mmHg 93%
06:00 +11°C° 0 mm 3 mps 738 mmHg 90%
07:00 +12°C° 0 mm 3 mps 738 mmHg 87%
08:00 +13°C° 0.1 mm 3 mps 738 mmHg 84%
09:00 +13°C° 0.1 mm 3 mps 738 mmHg 81%
10:00 +14°C° 0.1 mm 3 mps 739 mmHg 78%
11:00 +14°C° 0.2 mm 4 mps 739 mmHg 79%
12:00 +14°C° 0.2 mm 4 mps 739 mmHg 80%
13:00 +14°C° 0.2 mm 4 mps 739 mmHg 81%
14:00 +14°C° 0.2 mm 5 mps 739 mmHg 81%
15:00 +13°C° 0.2 mm 5 mps 739 mmHg 82%
16:00 +13°C° 0.2 mm 5 mps 739 mmHg 83%
17:00 +12°C° 0 mm 4 mps 740 mmHg 86%
18:00 +11°C° 0 mm 4 mps 740 mmHg 88%
19:00 +10°C° 0 mm 4 mps 740 mmHg 91%
20:00 +10°C° 0 mm 3 mps 740 mmHg 93%
21:00 +9°C° 0 mm 3 mps 740 mmHg 94%
22:00 +8°C° 0 mm 3 mps 741 mmHg 96%
23:00 +8°C° 0 mm 3 mps 741 mmHg 95%

Tomorrow, 19 May, Wednesday

Time Temperature Precipitation Wind Pressure Humidity
00:00 +8°C° 0 mm 3 mps 741 mmHg 95%
01:00 +8°C° 0 mm 3 mps 741 mmHg 94%
02:00 +7°C° 0 mm 3 mps 741 mmHg 94%
03:00 +7°C° 0 mm 3 mps 741 mmHg 93%
04:00 +7°C° 0 mm 3 mps 741 mmHg 93%
05:00 +8°C° 0 mm 3 mps 741 mmHg 87%
06:00 +9°C° 0 mm 3 mps 742 mmHg 81%
07:00 +10°C° 0 mm 4 mps 742 mmHg 76%
08:00 +12°C° 0 mm 4 mps 742 mmHg 72%
09:00 +13°C° 0 mm 4 mps 742 mmHg 69%
10:00 +14°C° 0 mm 4 mps 742 mmHg 65%
11:00 +14°C° 0.4 mm 4 mps 742 mmHg 68%
12:00 +14°C° 0.4 mm 4 mps 742 mmHg 71%
13:00 +13°C° 0.4 mm 4 mps 742 mmHg 74%
14:00 +14°C° 0.3 mm 4 mps 742 mmHg 72%
15:00 +14°C° 0.3 mm 4 mps 743 mmHg 70%
16:00 +14°C° 0.3 mm 5 mps 743 mmHg 68%
17:00 +12°C° 0.1 mm 4 mps 743 mmHg 72%
18:00 +11°C° 0.1 mm 3 mps 743 mmHg 76%
19:00 +9°C° 0.1 mm 3 mps 744 mmHg 80%
20:00 +8°C° 0 mm 2 mps 744 mmHg 82%
21:00 +7°C° 0 mm 2 mps 744 mmHg 84%
22:00 +6°C° 0 mm 2 mps 744 mmHg 86%
23:00 +5°C° 0 mm 2 mps 744 mmHg 88%

Day after tomorrow, 20 May, Thursday

Time Temperature Precipitation Wind Pressure Humidity
00:00 +5°C° 0 mm 2 mps 744 mmHg 90%
01:00 +5°C° 0 mm 2 mps 744 mmHg 92%
02:00 +4°C° 0 mm 2 mps 745 mmHg 92%
03:00 +4°C° 0 mm 2 mps 745 mmHg 92%
04:00 +4°C° 0 mm 2 mps 745 mmHg 92%
05:00 +5°C° 0 mm 3 mps 745 mmHg 86%
06:00 +8°C° 0 mm 3 mps 745 mmHg 80%
07:00 +10°C° 0 mm 4 mps 746 mmHg 74%
08:00 +11°C° 0 mm 4 mps 746 mmHg 68%
09:00 +13°C° 0 mm 4 mps 746 mmHg 63%
10:00 +14°C° 0 mm 4 mps 746 mmHg 57%
11:00 +15°C° 0 mm 4 mps 746 mmHg 55%
12:00 +15°C° 0 mm 4 mps 746 mmHg 53%
13:00 +16°C° 0 mm 5 mps 746 mmHg 50%
14:00 +15°C° 0 mm 4 mps 746 mmHg 53%
15:00 +15°C° 0 mm 4 mps 746 mmHg 57%
16:00 +15°C° 0 mm 4 mps 746 mmHg 60%
17:00 +13°C° 0.1 mm 4 mps 746 mmHg 67%
18:00 +11°C° 0.1 mm 3 mps 747 mmHg 75%
19:00 +10°C° 0.1 mm 3 mps 747 mmHg 83%
20:00 +8°C° 0 mm 3 mps 747 mmHg 85%
21:00 +7°C° 0 mm 3 mps 747 mmHg 87%
22:00 +4°C° 0 mm 3 mps 747 mmHg 89%
23:00 +4°C° 0 mm 3 mps 747 mmHg 88%

21 May, Friday

Time Temperature Precipitation Wind Pressure Humidity
00:00 +3°C° 0 mm 3 mps 747 mmHg 87%
01:00 +3°C° 0 mm 3 mps 747 mmHg 86%
02:00 +3°C° 0 mm 3 mps 747 mmHg 87%
03:00 +3°C° 0 mm 3 mps 747 mmHg 89%
04:00 +3°C° 0 mm 3 mps 747 mmHg 90%
05:00 +5°C° 0 mm 3 mps 747 mmHg 84%
06:00 +7°C° 0 mm 4 mps 748 mmHg 78%
07:00 +10°C° 0 mm 4 mps 748 mmHg 72%
08:00 +11°C° 0 mm 4 mps 748 mmHg 67%
09:00 +12°C° 0 mm 4 mps 747 mmHg 61%
10:00 +14°C° 0 mm 4 mps 747 mmHg 55%
11:00 +14°C° 0 mm 4 mps 747 mmHg 57%
12:00 +14°C° 0 mm 4 mps 747 mmHg 58%
13:00 +14°C° 0 mm 4 mps 747 mmHg 59%
14:00 +14°C° 0 mm 4 mps 746 mmHg 60%
15:00 +15°C° 0 mm 4 mps 746 mmHg 60%
16:00 +15°C° 0 mm 5 mps 745 mmHg 60%
17:00 +14°C° 0 mm 4 mps 745 mmHg 65%
18:00 +13°C° 0 mm 4 mps 745 mmHg 69%
19:00 +12°C° 0 mm 4 mps 745 mmHg 73%
20:00 +12°C° 0 mm 4 mps 745 mmHg 74%
21:00 +11°C° 0 mm 4 mps 744 mmHg 74%
22:00 +10°C° 0 mm 4 mps 744 mmHg 75%
23:00 +10°C° 0 mm 5 mps 744 mmHg 72%

22 May, Saturday

Time Temperature Precipitation Wind Pressure Humidity
00:00 +10°C° 0 mm 5 mps 743 mmHg 70%
01:00 +10°C° 0 mm 5 mps 743 mmHg 68%
02:00 +10°C° 0 mm 5 mps 742 mmHg 68%
03:00 +10°C° 0 mm 6 mps 742 mmHg 69%
04:00 +10°C° 0 mm 6 mps 741 mmHg 69%
05:00 +10°C° 0 mm 6 mps 741 mmHg 69%
06:00 +11°C° 0 mm 6 mps 741 mmHg 70%
07:00 +12°C° 0 mm 7 mps 741 mmHg 71%
08:00 +12°C° 0 mm 7 mps 741 mmHg 71%
09:00 +14°C° 0 mm 7 mps 741 mmHg 72%
10:00 +14°C° 0 mm 6 mps 741 mmHg 72%
11:00 +15°C° 0.1 mm 7 mps 741 mmHg 72%
12:00 +16°C° 0.1 mm 7 mps 741 mmHg 72%
13:00 +16°C° 0.1 mm 7 mps 741 mmHg 72%
14:00 +16°C° 0.5 mm 6 mps 741 mmHg 75%
15:00 +15°C° 0.5 mm 6 mps 741 mmHg 78%
16:00 +14°C° 0.5 mm 5 mps 741 mmHg 82%
17:00 +14°C° 0.2 mm 4 mps 741 mmHg 84%
18:00 +13°C° 0.2 mm 4 mps 741 mmHg 86%
19:00 +12°C° 0.2 mm 3 mps 741 mmHg 89%
20:00 +12°C° 0.2 mm 3 mps 742 mmHg 90%
21:00 +11°C° 0.2 mm 3 mps 742 mmHg 90%
22:00 +11°C° 0.2 mm 3 mps 742 mmHg 91%
23:00 +10°C° 0 mm 3 mps 742 mmHg 91%

23 May, Sunday

Time Temperature Precipitation Wind Pressure Humidity
00:00 +9°C° 0 mm 3 mps 742 mmHg 91%
01:00 +9°C° 0 mm 3 mps 742 mmHg 91%
02:00 +8°C° 0 mm 3 mps 742 mmHg 92%
03:00 +7°C° 0 mm 3 mps 742 mmHg 93%
04:00 +7°C° 0 mm 3 mps 742 mmHg 94%
05:00 +7°C° 0 mm 4 mps 742 mmHg 90%
06:00 +8°C° 0 mm 4 mps 742 mmHg 85%
07:00 +10°C° 0 mm 5 mps 742 mmHg 81%
08:00 +12°C° 0.1 mm 5 mps 742 mmHg 75%
09:00 +13°C° 0.1 mm 6 mps 742 mmHg 69%
10:00 +14°C° 0.1 mm 6 mps 742 mmHg 64%
11:00 +14°C° 0.3 mm 6 mps 742 mmHg 65%
12:00 +14°C° 0.3 mm 6 mps 742 mmHg 66%
13:00 +14°C° 0.3 mm 6 mps 742 mmHg 68%
14:00 +13°C° 0.8 mm 6 mps 743 mmHg 73%
15:00 +13°C° 0.8 mm 5 mps 743 mmHg 78%
16:00 +12°C° 0.8 mm 5 mps 743 mmHg 84%
17:00 +12°C° 0.4 mm 5 mps 743 mmHg 85%
18:00 +10°C° 0.4 mm 5 mps 743 mmHg 87%
19:00 +10°C° 0.4 mm 4 mps 743 mmHg 88%
20:00 +8°C° 0 mm 4 mps 744 mmHg 90%
21:00 +8°C° 0 mm 3 mps 744 mmHg 93%
22:00 +7°C° 0 mm 2 mps 744 mmHg 95%
23:00 +7°C° 0 mm 2 mps 744 mmHg 95%
Show more